Regional Weather Roundup
Issued by NWS Wakefield, VA

Home | Current Version | Previous Version | Graphics & Text | Print | Product List | Glossary On
Versions: 1 2 3 4 5 6 7 8 9 10 11 12 13 14 15 16 17 18 19 20 21 22 23 24 25 26 27 28 29 30 31 32 33 34 35 36 37 38 39 40 41 42 43 44 45 46 47 48 49 50
000
ASUS41 KAKQ 160815
RWRAKQ

REGIONAL WEATHER ROUNDUP
NATIONAL WEATHER SERVICE WAKEFIELD VA
400 AM EDT MON OCT 16 2017

Note: "fair" indicates few or no clouds below 12,000 feet with no
significant weather and/or obstructions to visibility. * = Denotes
station may not report precipitation (e.g., rain,snow,etc.),
thunder or fog.

VAZ042-051-052>054-056-160900-
NORTHERN VIRGINIA

CITY           SKY/WX    TMP DP  RH WIND       PRES   REMARKS
WASH NATIONAL  RAIN      63  58  83 NW10      29.96R
DULLES         LGT RAIN  62  60  93 NW8       29.96S
FORT BELVOIR   RAIN      63  58  86 NW8       29.96R
QUANTICO       LGT RAIN  64  64 100 N14G22    29.96R
FREDERICKSBRG* LGT RAIN  66  63  91 N14G25    29.94R
STAFFORD*      RAIN      62  62 100 N12G18    29.99R
WARRENTON      RAIN      62  56  81 N3        29.97R
CULPEPER*      RAIN      63  59  88 N3        29.98R
MANASSAS*      LGT RAIN  62  57  83 NW12      29.97R
LEESBURG*      CLOUDY    61  61 100 NW6       29.98S
WINCHESTER     CLOUDY    59  50  72 NW13      30.00R
FRONT ROYAL*   CLOUDY    59  52  77 NW10      29.99S
LURAY*         CLOUDY    63  52  67 NW10G22   29.99S
$$

VAZ048-049-060>072-079>083-160900-
CENTRAL AND SOUTH CENTRAL VIRGINIA

CITY           SKY/WX    TMP DP  RH WIND       PRES   REMARKS
RICHMOND       CLOUDY    72  67  84 W9        29.91S
CHESTERFIELD*  NOT AVBL
PETERSBURG*    CLOUDY    69  64  86 SW5       29.92S
HANOVER        CLOUDY    72  67  84 CALM      29.93R
TAPPAHANNOCK*  DRIZZLE   73  67  83 CALM      29.92S
QUINTON*       CLOUDY    71  68  90 CALM      29.90S
CHARLOTTSVILLE LGT RAIN  64  62  93 CALM      29.96R
GORDONSVILLE*  CLOUDY    64  63  96 CALM      29.95R FOG
ORANGE*        RAIN      63  61  94 CALM      29.96R
LOUISA*        CLOUDY    66  63  88 N10G17    29.94R
BUMPASS*       CLOUDY    68  65  91 N9        29.94R
FARMVILLE*     CLOUDY    72  70  95 CALM      29.92S
CREWE*         CLOUDY    70  70 100 CALM      29.92S
FORT PICKETT*  PTSUNNY   68  68 100 SW6       29.93R
CHASE CITY*    CLOUDY    69  69 100 CALM      29.94S
CLARKSVILLE*   CLOUDY    68  68 100 SW6       29.93S
SOUTH HILL*    MOCLDY    67  66  98 S7        29.99S
LAWRENCEVILLE* FAIR      67  65  93 S7        29.93S
EMPORIA*       PTCLDY    66  64  94 SE3       29.94F
$$

VAZ088>098-160900-
SOUTHEAST VIRGINIA

CITY           SKY/WX    TMP DP  RH WIND       PRES   REMARKS
NORFOLK        CLEAR     69  66  90 SW10      29.92F
VIRGINIA BEACH PTCLDY    69  65  86 SW9       29.92F
NORFOLK NAVAL  PTCLDY    70  63  78 SW12G31   29.93F
WEST POINT*    CLOUDY    72  66  81 SW3       29.92S
SALUDA*        CLOUDY    72  67  85 SW5       29.90S
NEWPORT NEWS   CLOUDY    71  64  78 SW13      29.91F
LANGLEY AFB    CLOUDY    71  65  81 SW10      29.91F
FORT EUSTIS    MOCLDY    70  65  83 SW8       29.89F
WILLIAMSBURG*  PTCLDY    72  66  83 SW7       29.92F
HR EXEC AP*    NOT AVBL
FRANKLIN*      CLEAR     66  64  91 S7        29.94F
US460-WAKEFLD  CLEAR     69  66  90 VRB3      29.92F
$$

VAZ020-022-025-037-045-160900-
WEST CENTRAL AND SOUTHWEST VIRGINIA

CITY           SKY/WX    TMP DP  RH WIND       PRES   REMARKS
STAUNTON*      CLOUDY    61  55  80 NW7       30.00F
WAYNESBORO*    CLOUDY    60  60  99 NW3       29.98F
HOT SPRINGS VA RAIN      49  49 100 W10G20    30.05R VSB 1/4
LYNCHBURG      LGT RAIN  65  64  97 CALM      29.96S
DANVILLE       CLOUDY    68  68 100 SW3       29.95S
SOUTH BOSTON*  CLOUDY    71  69  94 SW6       29.94S
MARTINSVILLE   HVY RAIN  64  61  90 N6        30.01R
ROANOKE        CLOUDY    63  55  75 NW17      30.03R
BLACKSBURG     DRIZZLE   57  56  97 W5        30.08S
DUBLIN*        LGT RAIN  57  55  92 NW10      30.08S
MARION*        LGT RAIN  56  51  84 NW8       30.11S
HILLSVILLE*    RAIN      57  54  87 CALM      30.05F
RICHLANDS*     CLOUDY    46  45  95 N12G20    30.15R
WISE*            N/A     45  45 100 N8        30.18S FOG
ABINGDON*      CLOUDY    55  52  90 N10G18    30.11S
$$

MDZ021>025-VAZ099-100-160900-
SOUTHERN MARYLAND AND THE DELMARVA PENINSULA

CITY           SKY/WX    TMP DP  RH WIND       PRES   REMARKS
PATUXENT RIVER CLOUDY    70  64  81 NW17      29.91R
BAY BRIDGE APT LGT RAIN  66  61  82 NW21G32   29.92R
LEONARDTOWN    NOT AVBL
DOVER          PTCLDY    66  57  72 NW14G24   29.88R
GEORGETOWN     CLOUDY    72  67  84 SW5       29.88S
EASTON         CLOUDY    71  62  74 N14       29.94R
CAMBRIDGE      CLOUDY    72  66  83 NW10      29.90R
SALISBURY      CLOUDY    71  68  90 SW7       29.88F
OCEAN CITY     CLOUDY    71  67  87 W8        29.89S
WALLOPS ISLAND CLOUDY    72  68  87 SW8       29.90S
ACCOMACK*      CLOUDY    73  67  81 SW9G16    29.90S
$$

NCZ012>017-030>032-160900-
NORTH CENTRAL AND EASTERN NORTH CAROLINA

CITY           SKY/WX    TMP DP  RH WIND       PRES   REMARKS
ROANOKE RAPIDS FAIR      66  64  94 S6        29.94F
RALEIGH        MOCLDY    67  66  97 SW8       29.96F
ELIZABETH CITY CLEAR     68  68 100 SW7       29.95F
AHOSKIE*       PTCLDY    65  64  96 S3        29.95F
EDENTON*       CLEAR     71  68  92 CALM      29.97F
CURRITUCK*     CLEAR     68  67  96 SW6       29.96F
KILL DEVIL HLS MOCLDY    70  70 100 CALM      29.95S
MANTEO         CLEAR     70  69  96 W9        29.97R
CAPE HATTERAS  CLEAR     77  75  93 SW10      29.97F
TARBORO*       NOT AVBL
GOLDSBORO      CLEAR    N/A N/A N/A CALM      29.97F
WASHINGTON     CLEAR     66  65  97 CALM      29.98S FOG
GREENVILLE     CLEAR     64  64 100 CALM      29.99F FOG
NEW BERN       CLOUDY    69  69 100 W3        29.99S FOG
WILMINGTON     CLEAR     69  68  96 NW3       29.98F
$$

VAZ048-160900-
ELSEWHERE

CITY           SKY/WX    TMP DP  RH WIND       PRES   REMARKS
HARRISBURG PA  CLOUDY    62  53  72 NW16      29.92S
BALTIMORE      LGT RAIN  62  60  93 W3        29.93R
ANNAPOLIS      LGT RAIN  66  62  87 NW15G25   29.93R
ANDREWS AFB    LGT RAIN  61  57  87 NW9       29.95R
PHILADELPHIA   CLOUDY    66  52  60 NW20G26   29.90R
HENDERSON NC   CLEAR     66  63  89 SW8       29.95F
GREENSBORO     CLOUDY    68  68 100 W6        29.96F
ROCKY MOUNT    CLEAR     66  66 100 SW6       29.97F
$$

VAZ100-160900-
MARINE

STATION/POSITION TIME  TEMP    WIND        PRES    WAVE   SWELL
                       AIR SEA DIR/SP/G            HT/PER HT/PER
                 (UTC) (F)     (DEG/KT/KT) (MB)    (FT/S) (FT/S)
BRANDYWINE LGT   0742   71     310/ 14/ 25 1011.9R
CAPE MAY NJ      0742   71 69  280/ 12/ 14 1010.7F
LEWES DE         0748   72 69  280/  9/ 12 1011.2F
15NM E FENWICK I 0750   71 69  230/ 14/ 16 1011.8F   4/ 6   2/ 8
OCEAN-CITY-INLET 0748   71 70  280/ 10/ 12 1012.3R
WACHAPREAGUE VA  0748   73 71  250/  7/ 12 1012.6F
THOMAS POINT MD  0800   65 71  310/ 19/ 21   N/A
GOOSES REEF MD   0750   71     350/ 19/ 25 1011.8F
COVE POINT MD    0748   70     350/ 25/ 28 1013.1R
SOLOMONS ISLAND  0748   70 72  320/ 12/ 15 1012.3R
BISHOPS HEAD MD  0748   72 70  260/  7/ 10 1012.6S
PINEY POINT MD   0748          330/ 14/ 16   N/A
POTOMAC MD       0750   72     290/ 12/ 16 1011.9F
CAMBRIDGE MD     0748   71 71              1013.3R
LEWISETTA VA     0748   71 71  330/  5/  6 1012.6R
RAPPAHANNOCK LGT 0736          220/ 18/ 21 1012.9F
STINGRAY PT      0750   73     260/ 12/ 16 1012.7F
YORK RVR RNG VA  0748   72     260/ 13/ 16 1013.2F
YORKTOWN VA      0736   71 73  230/ 11/ 13 1012.5F
JAMESTOWN VA     0750          240/ 12/ 16   N/A
DOMINION TERM VA 0736   71     220/ 13/ 15 1013.3F
KIPTOPEKE VA     0736      72  240/ 16/ 19   N/A
CAPE HENRY VA    0736   71     220/ 11/ 16   N/A
WILLOUBY STN VA  0736   71     220/ 16/ 19 1013.0F
S CRANEY ISL VA  0736   70     210/ 10/ 14 1013.1F
CAPE HENRY BUOY  0730      72                N/A     4/ 7
CAPE CHARLES BUO 0721      72                N/A     3/ 8
64NM E OF VA BCH 0750   72 71  230/ 14/ 16 1014.1F   4/ 8   2/ 8
DUCK PIER NC     0736   71 72  230/ 12/ 15 1013.9F
44100 DUCK FRF   0735      72                N/A     3/ 8
44056 DUCK FRF   0730      72                N/A     2/ 9
OREGON INLET NC  0736   75 75  200/ 13/ 15 1014.2F
HATTERAS NC      0736   76 78  230/  7/ 10 1015.0F
DIAMOND SHLS NC  0750   79 77  220/ 12/ 16 1014.5F   3/ 8   2/ 8
CAPE LOOKOUT NC  0800   76     230/  5/  7 1014.8F
$$



USA.gov is the U.S. government's official web portal to all federal, state and local government web resources and services.